Tracking 19636 objects as of 25-May-2019
HD Live streaming from Space Station
objects crossing your sky now

EUTELSAT W2

Track EUTELSAT W2 now!
EUTELSAT W2 is classified as:


NORAD ID: 25491
Int'l Code: 1998-056A
Perigee: 36,075.5 km
Apogee: 36,082.4 km
Inclination: 7.0 °
Period: 1,450.7 minutes
Semi major axis: 42449 km
RCS: 1.3454 m2 (large)
Launch date: October 5, 1998
Source: European Telecommunications Satellite Organization (EUTE)
Launch site: FRENCH GUIANA (FRGUI)

Twenty-four transponders, Europe, North Africa, Middle East.
aabbcc
Your satellite tracking list
Your tracking list is empty




NASA's NSSDC Master Catalog

Two Line Element Set (TLE):
1 25491U 98056A   19144.83868701  .00000012  00000-0  00000+0 0  9991
2 25491   7.0119  54.7884 0000811 342.1585 177.2049  0.99263006 75259
Source of the keplerian elements: AFSPC